Ireland West Airport Knock, Ireland

5:29 PM IST on September 05, 2015 (GMT +0100)
Connaught | | Change Station
CLOSE
Current Station
Airport
Location: Ireland West Airport Knock,
Elevation: 663 ft
Nearby Weather Stations

Elev 663 ft 53.91 °N, 8.81 °W | Updated 29 minutes ago

Scattered Clouds
Scattered Clouds
57 °F
Feels Like 57 °F
N
10
Wind Variable Wind from North

Today
High -- | Low -- °F
--% Chance of Precip.
Yesterday
High -- | Low -- °F
Precip. -- in
6:50 AM 8:16 PM
Waning Gibbous, 47% visible
Pressure 30.39 in
Visibility 6.2 miles
Clouds Scattered Clouds 2500 ft
Dew Point 45 °F
Humidity 63%
Rainfall 0.00 in
Snow Depth Not available.
UV 2 out of 12
Pollen Not available.
Air Quality Not available.
Flu Activity Not available.
METAR EIKN 051600Z 35009KT 310V020 9999 SCT025 14/07 Q1029 NOSIG
Pressure 30.39 in
Visibility 6.2 miles
Clouds Scattered Clouds 2500 ft
Dew Point 45 °F
Humidity 63%
Rainfall 0.00 in
Snow Depth Not available.
UV 2 out of 12
Pollen Not available.
Air Quality Not available.
Flu Activity Not available.
METAR EIKN 051600Z 35009KT 310V020 9999 SCT025 14/07 Q1029 NOSIG

10-Day Weather Forecast

×

Almanac

Astronomy

Sep. 05, 2015 Rise Set
Actual Time
Civil Twilight
Nautical Twilight
Astronomical Twilight
Moon
Length of Visible Light
Length of Day
Tomorrow will be .
, % of the Moon is Illuminated

Today's Extremes

Country Highs Country Lows

Community

WunderPhotos

Upload Photos

1,852,495 photos uploaded!

WunderBlogs® & News

Nearby

Air Quality

  Air Quality AQ Index Pollutant
Not available.

Snow Depth

Station Depth Elevation

Earthquake Activity

City Distance Mag. Time & Date
Minimum magnitude displayed is 2.5.

Coastal Water Temperatures

Place Temperature

Stations

Nearby Weather Stations

Station Location Temp. Windchill Dew Point Humidity Wind Precip. Elev Updated Type